#timestamp,LO_Frequency,Hit,StdDev 
1460152815.9,286047001.0,N
1460152835.7,286047000.3,N
1460152855.5,286047002.6,N
1460152875.3,286047000.9,N
1460152895.2,286047000.4,N
1460152915.9,286047004.2,N
1460152935.7,286047003.1,N
1460152955.6,286047006.4,Y
1460152975.4,286047004.4,P
1460152995.2,286047000.0,N
1460153015.1,286046999.9,N
1460153016.0,286046999.9,N
1460153035.8,286047000.9,N
1460153055.6,286046999.8,N
1460153075.5,286047002.6,N
1460153095.3,286047001.6,N
1460153115.1,286047002.8,N
1460153135.9,286047002.4,N
1460153155.7,286047002.1,N
1460153175.5,286047005.9,Y
1460153195.4,286047002.1,P
1460153215.2,286047004.0,P
1460153235.0,286047003.2,N
1460153235.9,286047003.2,Y
1460153255.8,286046999.7,P
1460153275.6,286046999.8,N
1460153295.4,286047000.0,N
1460153315.3,286047004.4,Y
1460153335.1,286047001.3,P
1460153355.8,286047005.6,P
1460153375.7,286047004.5,N
1460153395.5,286047008.7,Y
1460153415.3,286047003.0,P
1460153435.2,286047002.7,P
1460153455.9,286047002.0,P
1460153475.7,286047003.3,Y
1460153495.6,286047001.8,P
1460153515.4,286046999.9,N
1460153535.2,286047001.0,N
1460153555.1,286047001.2,N
1460153556.0,286047001.2,N
1460153575.8,286046996.7,Y
1460153595.6,286046997.3,P
1460153615.5,286046996.5,N
1460153635.3,286047002.4,N
1460153655.1,286047000.3,N
1460153675.9,286047002.8,N
1460153695.7,286047000.7,N
1460153715.5,286046998.5,N
1460153735.3,286047000.0,N
1460153755.2,286047002.8,N
1460153775.0,286047001.1,N
1460153775.9,286047001.1,N
1460153795.7,286047002.7,N
1460153815.6,286046999.9,N
1460153835.4,286046999.3,N
1460153855.2,286047000.8,N
1460153875.1,286047000.8,N
1460153876.0,286047000.8,N
1460153895.8,286046997.8,N
1460153915.6,286046997.4,N
1460153935.5,286046999.4,N
1460153955.3,286046999.4,N
1460153975.1,286046995.4,N
1460153995.9,286046996.0,N
1460154015.7,286046995.4,N
1460154035.5,286046993.8,N
1460154055.3,286046994.3,N
1460154075.2,286046990.1,Y
1460154095.0,286046990.5,P
1460154095.9,286046990.5,N
1460154115.8,286046991.0,N
1460154135.6,286046991.0,N
1460154155.4,286046991.3,N
1460154175.2,286046991.4,N
1460154195.1,286046992.6,N
1460154196.0,286046992.6,N
1460154215.8,286046994.0,N
1460154235.6,286046992.9,N
1460154255.5,286046990.4,Y
1460154275.3,286046999.2,P
1460154295.1,286046998.0,N
1460154315.9,286046996.9,N
1460154335.7,286046995.6,N
1460154355.5,286046996.3,N
1460154375.4,286046993.9,N
1460154395.2,286046993.8,N
1460154415.0,286046995.2,N
1460154415.9,286046995.2,N
1460154435.8,286046996.8,N
1460154455.6,286046993.3,Y
1460154475.4,286047001.2,P
1460154495.3,286047000.4,N
1460154515.1,286046997.0,N
1460154516.0,286046997.0,N
1460154535.8,286046997.6,N
1460154555.7,286046997.1,N
1460154575.5,286046999.5,N
1460154595.3,286046999.1,N
1460154615.2,286046998.1,N
1460154635.9,286047001.0,N
1460154655.7,286047001.1,N
1460154675.5,286046999.3,N
1460154695.4,286046998.9,N
1460154715.2,286046997.1,N
1460154735.0,286046996.8,N
1460154735.9,286046996.8,N
1460154755.8,286047001.1,N
1460154775.6,286046998.5,N
1460154795.4,286046999.8,N
1460154815.3,286047002.3,N
1460154835.1,286047001.6,N
1460154836.0,286047001.6,N
1460154855.8,286047000.7,N
1460154875.7,286047000.1,N
1460154895.5,286047000.2,N
1460154915.3,286047001.2,N
1460154935.2,286047000.6,N
1460154955.9,286047002.7,N
1460154975.7,286047001.2,N
1460154995.5,286047000.9,N
1460155015.4,286046998.5,N
1460155035.2,286046998.9,N
1460155055.0,286046995.7,N
1460155055.9,286046995.7,N
1460155075.8,286046997.2,N
1460155095.6,286046997.3,N
1460155115.4,286046999.5,N
1460155135.3,286046997.1,N
1460155155.1,286046997.0,N
1460155175.8,286046999.2,N
1460155195.7,286046995.5,N
1460155215.5,286046995.3,N
1460155235.3,286046996.2,N
1460155255.2,286046994.2,N
1460155275.9,286046993.3,N
1460155295.7,286046993.6,N
1460155315.6,286046994.7,N
1460155335.4,286046993.5,N
1460155355.2,286046991.7,N
1460155375.0,286046992.1,N
1460155375.9,286046992.1,N
1460155395.8,286046990.1,Y
1460155415.6,286046993.4,P
1460155435.4,286046996.2,N
1460155455.3,286046994.5,P
1460155475.1,286046995.8,N
1460155495.8,286046996.4,N
1460155515.7,286046993.5,Y
1460155535.5,286046998.6,P
1460155555.3,286046996.6,N
1460155575.2,286046998.8,N
1460155595.9,286047000.3,N
1460155615.7,286047000.3,N
1460155635.6,286047000.4,N
1460155655.4,286047000.1,N
1460155675.2,286046998.2,N
1460155695.1,286047000.7,N
1460155696.0,286047000.7,N
1460155715.8,286047000.7,N
1460155735.6,286047002.6,N
1460155755.5,286047002.7,N
1460155775.3,286046999.8,N
1460155795.1,286047000.9,N
1460155815.8,286047002.8,N
1460155835.7,286047003.2,N
1460155855.5,286047001.7,N
1460155875.3,286047003.0,N
1460155895.2,286047004.2,N
1460155915.9,286047004.7,N
1460155935.7,286047006.6,N
1460155955.6,286047007.3,N
1460155975.4,286047007.1,N
1460155995.2,286047008.8,N
1460156015.1,286047010.1,Y
1460156016.0,286047010.1,P
1460156035.8,286047009.8,N
1460156055.6,286047014.0,P
1460156075.5,286047012.9,N
1460156095.3,286047013.8,Y
1460156115.1,286047004.3,P
1460156135.9,286047002.4,N
1460156155.7,286047002.4,N
1460156175.5,286047005.7,N
1460156195.4,286047001.5,N
1460156215.2,286047004.2,N
1460156235.0,286047000.3,N
1460156235.9,286047000.3,N
1460156255.8,286046999.9,N
1460156275.6,286047000.4,N
1460156295.4,286046999.8,N
1460156315.2,286047002.8,N
1460156335.1,286047001.7,N
1460156336.0,286047001.7,N
1460156355.8,286046999.8,N
1460156375.6,286047000.5,N
1460156395.5,286047000.5,N
